Starlink 32898

operational
NORAD ID: 62998 Int'l Des: 2025-031 Owner: SPXS Country: US Constellation: starlink
LEOCIRCULAR

About Starlink 32898

Description loading...

Live Position

Loading 3D Globe...

Upcoming Passes

Altitude History

Altitude vs Time

uPlot chart will show altitude changes over time

Two-Line Element Set

1 62998U 25031T 25350.06760877 .00017438 00000-0 64124-3 0 9994
2 62998 43.0028 255.8255 0001393 265.1332 94.9361 15.27603421 48301
Epoch: Dec 16, 2025 • Age: 24 hours

Current Status

Altitude 482.3 km
Velocity 7.63 km/s
Sub-Earth Point 16.01°N, 163.18°E
Launch Date Feb 11, 2025
Age 0.8 years
Type internet

Technical Details

Classification Payload
Mass 730.00 kg
Dry Mass 700.00 kg
Total Mass 730.00 kg
Length 0.30 m
Diameter 4.10 m
Span 29.00 m
Shape Box + pan
Manufacturer SPXS
Bus Type Starlink V2M
Phase Status In Orbit
Owner/State SPXS/US

Large Constellations

Loading constellations...